RYR6414 EDDH-EDDN

Flight info

Callsign RYR6414
Flight time 0h 50m
Altitude 33000
Route AMLUH3B AMLUH M852 DENIX DCT ZUCKA DCT GALMA M736 TABAT Q244 PIVIR PIVIR1V
Aircraft B38M/M-SDE1FGHILORVWXY/HB1

Departure

Time 2026-04-24 13:56
Airport Hamburg Helmut Schmidt Airport (EDDH)

Arrival

Time 2026-04-24 14:46
Airport Nuremberg Airport (EDDN)
Time Latitude Longitude Altitude Speed Heading
2026-04-24 13:17 53.62767 10.00259 50 ft 0 kts 62°
2026-04-24 13:50 53.62766 10.00254 48 ft 3 kts 62°
2026-04-24 13:50 53.62755 10.00219 46 ft 2 kts 62°
2026-04-24 13:50 53.62740 10.00187 51 ft 4 kts 27°
2026-04-24 13:50 53.62719 10.00188 52 ft 4 kts 328°
2026-04-24 13:51 53.62698 10.00211 51 ft 2 kts 332°
2026-04-24 13:51 53.62696 10.00213 51 ft 0 kts 333°
2026-04-24 13:54 53.62697 10.00212 51 ft 1 kts 333°
2026-04-24 13:54 53.62714 10.00197 49 ft 5 kts 333°
2026-04-24 13:54 53.62751 10.00165 54 ft 7 kts 333°
2026-04-24 13:54 53.62800 10.00123 54 ft 9 kts 333°
2026-04-24 13:55 53.62856 10.00062 50 ft 10 kts 302°
2026-04-24 13:55 53.62841 9.99953 53 ft 10 kts 242°
2026-04-24 13:55 53.62810 9.99843 54 ft 11 kts 252°
2026-04-24 13:55 53.62854 9.99750 53 ft 11 kts 333°
2026-04-24 13:56 53.62973 9.99648 54 ft 47 kts 333°
2026-04-24 13:56 53.63502 9.99196 49 ft 121 kts 333°
2026-04-24 13:56 53.64426 9.98410 196 ft 165 kts 330°
2026-04-24 13:56 53.65480 9.97520 964 ft 167 kts 328°
2026-04-24 13:57 53.66522 9.96628 1836 ft 168 kts 328°
2026-04-24 13:57 53.67613 9.95641 2255 ft 191 kts 329°
2026-04-24 13:57 53.68888 9.94853 2769 ft 202 kts 353°
2026-04-24 13:57 53.70264 9.94796 3610 ft 200 kts 356°
2026-04-24 13:58 53.71686 9.94829 4159 ft 210 kts
2026-04-24 13:58 53.73065 9.95612 4939 ft 210 kts 29°
2026-04-24 13:58 53.74111 9.97391 5566 ft 222 kts 54°
2026-04-24 13:58 53.74590 9.99898 6244 ft 233 kts 82°
2026-04-24 13:59 53.74355 10.02671 7018 ft 247 kts 105°
2026-04-24 13:59 53.73560 10.05387 7520 ft 269 kts 114°
2026-04-24 13:59 53.72626 10.08262 8007 ft 289 kts 115°
2026-04-24 13:59 53.71618 10.11326 8571 ft 305 kts 115°
2026-04-24 14:00 53.70580 10.14447 9498 ft 306 kts 115°
2026-04-24 14:00 53.69511 10.17597 10267 ft 314 kts 120°
2026-04-24 14:00 53.67962 10.20324 10745 ft 335 kts 145°
2026-04-24 14:00 53.65772 10.21904 11166 ft 351 kts 167°
2026-04-24 14:01 53.63363 10.22926 11677 ft 364 kts 166°
2026-04-24 14:01 53.60907 10.24033 12464 ft 366 kts 165°
2026-04-24 14:01 53.58438 10.25157 13273 ft 370 kts 165°
2026-04-24 14:01 53.55945 10.26296 14045 ft 373 kts 165°
2026-04-24 14:02 53.53422 10.27449 14758 ft 376 kts 166°
2026-04-24 14:02 53.50892 10.28605 15499 ft 378 kts 166°
2026-04-24 14:02 53.48332 10.29773 16193 ft 382 kts 166°
2026-04-24 14:02 53.45758 10.30947 16895 ft 385 kts 166°
2026-04-24 14:03 53.43168 10.32125 17571 ft 388 kts 167°
2026-04-24 14:03 53.40544 10.33308 18250 ft 391 kts 167°
2026-04-24 14:03 53.37902 10.34494 18807 ft 395 kts 167°
2026-04-24 14:03 53.35237 10.35697 19365 ft 398 kts 167°
2026-04-24 14:04 53.32551 10.36903 19924 ft 401 kts 167°
2026-04-24 14:04 53.29838 10.38120 20481 ft 404 kts 168°
2026-04-24 14:04 53.27112 10.39339 21008 ft 407 kts 168°
2026-04-24 14:04 53.24401 10.40554 21536 ft 410 kts 168°
2026-04-24 14:05 53.21599 10.41807 22074 ft 413 kts 168°
2026-04-24 14:05 53.18812 10.43051 22609 ft 416 kts 168°
2026-04-24 14:05 53.16043 10.44285 23114 ft 419 kts 168°
2026-04-24 14:05 53.13216 10.45519 23627 ft 421 kts 171°
2026-04-24 14:06 53.10325 10.46390 24049 ft 423 kts 174°
2026-04-24 14:06 53.07420 10.47257 24490 ft 425 kts 173°
2026-04-24 14:06 53.04508 10.48149 24928 ft 428 kts 173°
2026-04-24 14:06 53.01569 10.49061 25351 ft 430 kts 173°
2026-04-24 14:07 52.98619 10.49979 25772 ft 432 kts 173°
2026-04-24 14:07 52.95659 10.50901 26174 ft 434 kts 173°
2026-04-24 14:07 52.92685 10.51826 26580 ft 437 kts 173°
2026-04-24 14:07 52.89694 10.52755 26971 ft 439 kts 173°
2026-04-24 14:08 52.86678 10.53690 27375 ft 441 kts 173°
2026-04-24 14:08 52.83655 10.54627 27754 ft 443 kts 173°
2026-04-24 14:08 52.80622 10.55565 28141 ft 445 kts 173°
2026-04-24 14:08 52.77566 10.56509 28494 ft 447 kts 173°
2026-04-24 14:09 52.74509 10.57452 28885 ft 448 kts 173°
2026-04-24 14:09 52.71423 10.58402 29263 ft 451 kts 173°
2026-04-24 14:09 52.68336 10.59351 29604 ft 453 kts 173°
2026-04-24 14:09 52.65219 10.60309 29869 ft 457 kts 173°
2026-04-24 14:10 52.63144 10.60945 30116 ft 458 kts 173°
2026-04-24 14:10 52.58942 10.62232 30533 ft 461 kts 173°
2026-04-24 14:10 52.55829 10.63183 30816 ft 462 kts 174°
2026-04-24 14:10 52.52659 10.64151 31089 ft 464 kts 173°
2026-04-24 14:11 52.49479 10.65121 31412 ft 465 kts 174°
2026-04-24 14:11 52.46288 10.66092 31703 ft 467 kts 174°
2026-04-24 14:11 52.39895 10.68034 32383 ft 467 kts 174°
2026-04-24 14:12 52.36699 10.69002 32772 ft 466 kts 174°
2026-04-24 14:12 52.33518 10.69965 33114 ft 466 kts 174°
2026-04-24 14:12 52.31357 10.70618 33209 ft 467 kts 174°
2026-04-24 14:13 52.25046 10.72523 33186 ft 462 kts 174°
2026-04-24 14:13 52.18709 10.74429 33167 ft 462 kts 174°
2026-04-24 14:14 52.12374 10.76329 33160 ft 463 kts 174°
2026-04-24 14:14 52.02890 10.79163 33137 ft 462 kts 174°
2026-04-24 14:15 51.96556 10.81049 33163 ft 463 kts 174°
2026-04-24 14:15 51.90188 10.82940 33164 ft 467 kts 174°
2026-04-24 14:16 51.83800 10.84831 33157 ft 466 kts 174°
2026-04-24 14:17 51.74211 10.87662 33154 ft 466 kts 174°
2026-04-24 14:17 51.65415 10.94114 33153 ft 482 kts 136°
2026-04-24 14:18 51.61106 11.02448 33141 ft 486 kts 131°
2026-04-24 14:18 51.56898 11.10869 33153 ft 486 kts 130°
2026-04-24 14:19 51.52647 11.19422 33151 ft 487 kts 130°
2026-04-24 14:19 51.48443 11.27860 33141 ft 486 kts 130°
2026-04-24 14:20 51.44221 11.36310 33144 ft 485 kts 130°
2026-04-24 14:20 51.39306 11.43508 33138 ft 475 kts 156°
2026-04-24 14:21 51.36234 11.45146 33146 ft 464 kts 175°
2026-04-24 14:21 51.33021 11.45337 33150 ft 458 kts 189°
2026-04-24 14:21 51.26626 11.44962 33152 ft 462 kts 185°
2026-04-24 14:22 51.20193 11.44929 33151 ft 462 kts 184°
2026-04-24 14:22 51.13879 11.44915 32738 ft 446 kts 184°
2026-04-24 14:23 51.07704 11.44907 32208 ft 443 kts 183°
2026-04-24 14:23 51.04627 11.44910 32009 ft 442 kts 184°
2026-04-24 14:23 51.01569 11.44913 31762 ft 437 kts 184°
2026-04-24 14:24 50.98533 11.44913 31154 ft 436 kts 183°
2026-04-24 14:24 50.95486 11.44925 30458 ft 440 kts 182°
2026-04-24 14:24 50.92422 11.44934 29808 ft 440 kts 182°
2026-04-24 14:24 50.89376 11.44936 29319 ft 436 kts 183°
2026-04-24 14:25 50.86360 11.44934 28864 ft 431 kts 183°
2026-04-24 14:25 50.83372 11.44935 28357 ft 428 kts 183°
2026-04-24 14:25 50.80404 11.44937 27866 ft 425 kts 183°
2026-04-24 14:25 50.77458 11.44938 27373 ft 422 kts 182°
2026-04-24 14:26 50.74529 11.44940 26885 ft 420 kts 182°
2026-04-24 14:26 50.71613 11.44942 26424 ft 417 kts 182°
2026-04-24 14:26 50.68725 11.44944 25958 ft 415 kts 182°
2026-04-24 14:26 50.65840 11.44946 25485 ft 414 kts 182°
2026-04-24 14:27 50.62958 11.44950 25037 ft 412 kts 182°
2026-04-24 14:27 50.60098 11.44952 24576 ft 411 kts 182°
2026-04-24 14:27 50.57277 11.44955 24131 ft 410 kts 182°
2026-04-24 14:27 50.54426 11.44959 23671 ft 409 kts 182°
2026-04-24 14:28 50.51549 11.44963 23154 ft 408 kts 182°
2026-04-24 14:28 50.48724 11.44966 22699 ft 405 kts 182°
2026-04-24 14:28 50.45951 11.44968 22283 ft 402 kts 182°
2026-04-24 14:28 50.43174 11.44970 21854 ft 399 kts 182°
2026-04-24 14:29 50.40406 11.44972 21441 ft 396 kts 182°
2026-04-24 14:29 50.37659 11.44974 21035 ft 394 kts 182°
2026-04-24 14:29 50.34928 11.44977 20624 ft 391 kts 182°
2026-04-24 14:29 50.32219 11.44979 20228 ft 389 kts 182°
2026-04-24 14:30 50.30427 11.44982 19949 ft 387 kts 182°
2026-04-24 14:30 50.26839 11.44985 19427 ft 384 kts 182°
2026-04-24 14:30 50.24173 11.44987 19033 ft 382 kts 182°
2026-04-24 14:30 50.21514 11.44990 18633 ft 381 kts 182°
2026-04-24 14:31 50.18874 11.44993 18210 ft 379 kts 182°
2026-04-24 14:31 50.16244 11.44996 17792 ft 377 kts 181°
2026-04-24 14:31 50.13629 11.44998 17393 ft 374 kts 182°
2026-04-24 14:31 50.11042 11.45000 17010 ft 371 kts 182°
2026-04-24 14:32 50.08469 11.45001 16619 ft 368 kts 181°
2026-04-24 14:32 50.05945 11.45004 16238 ft 365 kts 181°
2026-04-24 14:32 50.03381 11.45006 15857 ft 363 kts 181°
2026-04-24 14:32 50.00869 11.45008 15483 ft 361 kts 181°
2026-04-24 14:33 49.98360 11.45010 15110 ft 359 kts 181°
2026-04-24 14:33 49.95903 11.45012 14763 ft 357 kts 181°
2026-04-24 14:33 49.93429 11.45013 14376 ft 356 kts 181°
2026-04-24 14:33 49.90946 11.45017 13998 ft 355 kts 181°
2026-04-24 14:34 49.88473 11.45019 13573 ft 355 kts 181°
2026-04-24 14:34 49.86012 11.45021 13161 ft 354 kts 181°
2026-04-24 14:34 49.83552 11.45025 12769 ft 352 kts 181°
2026-04-24 14:34 49.81118 11.45027 12420 ft 349 kts 181°
2026-04-24 14:35 49.78720 11.45030 12048 ft 347 kts 181°
2026-04-24 14:35 49.76307 11.45033 11641 ft 347 kts 181°
2026-04-24 14:35 49.73895 11.45036 11201 ft 348 kts 181°
2026-04-24 14:35 49.71466 11.45039 10792 ft 348 kts 181°
2026-04-24 14:36 49.69052 11.45042 10467 ft 345 kts 181°
2026-04-24 14:36 49.66720 11.45045 10304 ft 327 kts 181°
2026-04-24 14:36 49.64507 11.45046 10181 ft 311 kts 181°
2026-04-24 14:36 49.62376 11.45048 10056 ft 302 kts 181°
2026-04-24 14:37 49.60286 11.45066 9808 ft 298 kts 178°
2026-04-24 14:37 49.58284 11.45853 9394 ft 301 kts 152°
2026-04-24 14:37 49.56687 11.47899 9010 ft 299 kts 124°
2026-04-24 14:37 49.55806 11.50742 8737 ft 291 kts 100°
2026-04-24 14:38 49.55430 11.53775 8470 ft 287 kts 97°
2026-04-24 14:38 49.55090 11.56783 8176 ft 285 kts 97°
2026-04-24 14:38 49.54670 11.59771 7806 ft 288 kts 109°
2026-04-24 14:38 49.53541 11.62337 7438 ft 292 kts 137°
2026-04-24 14:39 49.51835 11.63970 7212 ft 288 kts 161°
2026-04-24 14:39 49.49880 11.64294 6918 ft 283 kts 192°
2026-04-24 14:39 49.48126 11.63129 6609 ft 270 kts 222°
2026-04-24 14:39 49.46904 11.61048 6277 ft 256 kts 239°
2026-04-24 14:40 49.45890 11.58872 6073 ft 242 kts 242°
2026-04-24 14:40 49.45352 11.56545 5920 ft 226 kts 271°
2026-04-24 14:40 49.45412 11.54175 5888 ft 223 kts 275°
2026-04-24 14:40 49.45554 11.51817 5788 ft 224 kts 280°
2026-04-24 14:41 49.45760 11.49454 5631 ft 223 kts 280°
2026-04-24 14:41 49.45995 11.47126 5488 ft 222 kts 281°
2026-04-24 14:41 49.46230 11.44778 5407 ft 220 kts 281°
2026-04-24 14:41 49.46463 11.42431 5231 ft 219 kts 281°
2026-04-24 14:42 49.46619 11.40893 5067 ft 220 kts 280°
2026-04-24 14:42 49.46921 11.37783 4720 ft 224 kts 280°
2026-04-24 14:42 49.47157 11.35412 4399 ft 225 kts 280°
2026-04-24 14:42 49.47385 11.33081 4134 ft 218 kts 279°
2026-04-24 14:43 49.47606 11.30806 3872 ft 209 kts 280°
2026-04-24 14:43 49.47822 11.28639 3620 ft 204 kts 280°
2026-04-24 14:43 49.48023 11.26567 3349 ft 185 kts 280°
2026-04-24 14:43 49.48206 11.24699 3144 ft 169 kts 280°
2026-04-24 14:44 49.48385 11.22931 2829 ft 165 kts 280°
2026-04-24 14:44 49.48553 11.21210 2599 ft 163 kts 280°
2026-04-24 14:44 49.48721 11.19501 2419 ft 155 kts 281°
2026-04-24 14:44 49.48874 11.17926 2265 ft 146 kts 281°
2026-04-24 14:45 49.49023 11.16412 2036 ft 140 kts 279°
2026-04-24 14:45 49.49177 11.14928 1758 ft 142 kts 277°
2026-04-24 14:45 49.49319 11.13421 1569 ft 144 kts 278°
2026-04-24 14:45 49.49458 11.11928 1363 ft 139 kts 278°
2026-04-24 14:46 49.49603 11.10443 1200 ft 143 kts 282°
2026-04-24 14:46 49.49758 11.08955 1051 ft 133 kts 281°
2026-04-24 14:46 49.49879 11.07735 1027 ft 83 kts 278°
2026-04-24 14:46 49.49938 11.07115 1025 ft 37 kts 278°
2026-04-24 14:47 49.49915 11.07021 1023 ft 12 kts 206°
2026-04-24 14:47 49.49805 11.07056 1023 ft 7 kts 158°
2026-04-24 14:47 49.49800 11.07059 1023 ft 0 kts 158°
2026-04-24 14:48 49.49799 11.07060 1023 ft 1 kts 158°
2026-04-24 14:48 49.49788 11.07067 1023 ft 3 kts 158°
2026-04-24 14:48 49.49767 11.07082 1024 ft 5 kts 148°
2026-04-24 14:48 49.49742 11.07146 1021 ft 9 kts 99°
2026-04-24 14:49 49.49732 11.07252 1021 ft 11 kts 98°
2026-04-24 14:49 49.49720 11.07371 1025 ft 12 kts 98°
2026-04-24 14:49 49.49711 11.07460 1026 ft 5 kts 98°
2026-04-24 14:49 49.49705 11.07520 1026 ft 6 kts 98°
2026-04-24 14:50 49.49699 11.07589 1025 ft 7 kts 99°
2026-04-24 14:50 49.49690 11.07675 1027 ft 8 kts 99°
2026-04-24 14:50 49.49670 11.07758 1027 ft 9 kts 144°
2026-04-24 14:50 49.49604 11.07760 1029 ft 11 kts 208°
2026-04-24 14:51 49.49600 11.07627 1027 ft 15 kts 278°
2026-04-24 14:51 49.49597 11.07534 1026 ft 6 kts 215°
2026-04-24 14:51 49.49556 11.07520 1028 ft 5 kts 189°
2026-04-24 14:51 49.49545 11.07517 1028 ft 0 kts 189°
2026-04-24 14:55 49.49546 11.07517 1028 ft 0 kts 189°